timestamp,surface_pressure_avg,surface_temp_avg,battery_voltage,lat,long
2022-07-04 00:09:00+00:00,283.4547,15.4,12.01,47.84626,-54.09684
2022-07-04 00:19:00+00:00,289.0964,15.5,12.01,47.84626,-54.09684
2022-07-04 00:29:00+00:00,295.7848,15.3,12.01,47.84626,-54.09684
2022-07-04 00:39:00+00:00,298.5396,15.2,12.01,47.84626,-54.09684
2022-07-04 00:49:00+00:00,304.498,15.5,12.01,47.84626,-54.09684
2022-07-04 00:59:00+00:00,310.993,15.6,12.01,47.84626,-54.09684
2022-07-04 01:09:00+00:00,319.7531,15.2,12.01,47.84626,-54.09684
2022-07-04 01:19:00+00:00,323.0496,15.28,12.01,47.84626,-54.09684
2022-07-04 01:29:00+00:00,327.0714,15.6,12.01,47.84626,-54.09684
2022-07-04 01:39:00+00:00,331.833,15.4,12.01,47.84626,-54.09684
2022-07-04 01:49:00+00:00,336.36800000000005,15.44,12.01,47.84626,-54.09684
2022-07-04 01:59:00+00:00,338.2413,15.74,12.01,47.84626,-54.09684
2022-07-04 02:09:00+00:00,338.7763,15.8,12.01,47.84626,-54.09684
2022-07-04 02:19:00+00:00,342.6129,15.7,12.01,47.84626,-54.09684
2022-07-04 02:29:00+00:00,347.9362,15.8,12.01,47.84626,-54.09684
2022-07-04 02:39:00+00:00,347.9045,15.8,12.01,47.84626,-54.09684
2022-07-04 02:49:00+00:00,347.5163,15.83,12.01,47.84626,-54.09684
2022-07-04 02:59:00+00:00,349.31800000000015,15.88,12.01,47.84626,-54.09684
2022-07-04 03:09:00+00:00,353.4447,15.8,12.01,47.84626,-54.09684
2022-07-04 03:19:00+00:00,350.3313,15.86,12.01,47.84626,-54.09684
2022-07-04 03:29:00+00:00,347.8995,15.9,12.01,47.84626,-54.09684
2022-07-04 03:39:00+00:00,349.8013,15.9,12.01,47.84626,-54.09684
2022-07-04 03:49:00+00:00,348.3913,15.9,12.01,47.84626,-54.09684
2022-07-04 03:59:00+00:00,342.9479,15.94,12.01,47.84626,-54.09684
2022-07-04 04:09:00+00:00,341.278,15.98,12.01,47.84626,-54.09684
2022-07-04 04:19:00+00:00,339.8646,15.9,12.01,47.84626,-54.09684
2022-07-04 04:29:00+00:00,335.11300000000006,15.9,12.01,47.84626,-54.09684
2022-07-04 04:39:00+00:00,331.8463,15.95,12.01,47.84626,-54.09684
2022-07-04 04:49:00+00:00,326.9246,15.9,12.01,47.84626,-54.09684
2022-07-04 04:59:00+00:00,319.5563,15.9,12.01,47.84626,-54.09684
2022-07-04 05:09:00+00:00,316.983,15.8,12.01,47.84626,-54.09684
2022-07-04 05:19:00+00:00,316.0413,15.86,12.01,47.84626,-54.09684
2022-07-04 05:29:00+00:00,305.6964,15.88,12.01,47.84626,-54.09684
2022-07-04 05:39:00+00:00,294.2197,15.7,12.01,47.84626,-54.09684
2022-07-04 05:49:00+00:00,292.0531,15.69,12.01,47.84626,-54.09684
2022-07-04 05:59:00+00:00,286.4464,15.77,12.01,47.84626,-54.09684
2022-07-04 06:09:00+00:00,274.3731,15.9,12.01,47.84626,-54.09684
2022-07-04 06:19:00+00:00,265.7231,15.9,12.01,47.84626,-54.09684
2022-07-04 06:29:00+00:00,265.5381,15.9,12.01,47.84626,-54.09684
2022-07-04 06:39:00+00:00,259.843,15.94,12.01,47.84626,-54.09684
2022-07-04 06:49:00+00:00,251.9464,16.0,12.01,47.84626,-54.09684
2022-07-04 06:59:00+00:00,249.7115,16.05,12.01,47.84626,-54.09684
2022-07-04 07:09:00+00:00,247.5814,16.05,12.01,47.84626,-54.09684
2022-07-04 07:19:00+00:00,236.4348,16.09,12.01,47.84626,-54.09684
2022-07-04 07:29:00+00:00,220.8865,16.1,12.01,47.84626,-54.09684
2022-07-04 07:39:00+00:00,216.7464,16.1,12.01,47.84626,-54.09684
2022-07-04 07:49:00+00:00,216.0915,16.07,12.01,47.84626,-54.09684
2022-07-04 07:59:00+00:00,212.0582,16.0,12.01,47.84626,-54.09684
2022-07-04 08:09:00+00:00,207.3964,16.03,12.01,47.84626,-54.09684
2022-07-04 08:19:00+00:00,206.3647,16.11,12.01,47.84626,-54.09684
2022-07-04 08:29:00+00:00,205.0998,16.2,12.01,47.84626,-54.09684
2022-07-04 08:39:00+00:00,203.0015,16.29,12.01,47.84626,-54.09684
2022-07-04 08:49:00+00:00,203.1781,16.42,12.01,47.84626,-54.09684
2022-07-04 08:59:00+00:00,203.8931,16.5,12.01,47.84626,-54.09684
2022-07-04 09:09:00+00:00,204.2865,16.5,12.01,47.84626,-54.09684
2022-07-04 09:19:00+00:00,206.9647,16.5,12.01,47.84626,-54.09684
2022-07-04 09:29:00+00:00,208.9514,16.4,12.01,47.84626,-54.09684
2022-07-04 09:39:00+00:00,213.2264,16.4,12.01,47.84626,-54.09684
2022-07-04 09:49:00+00:00,219.6581,16.39,12.01,47.84626,-54.09684
2022-07-04 09:59:00+00:00,223.6781,16.3,12.01,47.84626,-54.09684
2022-07-04 10:09:00+00:00,229.3914,16.28,12.01,47.84626,-54.09684
2022-07-04 10:19:01+00:00,234.063,16.1,12.01,47.84626,-54.09684
2022-07-04 10:29:01+00:00,235.9814,15.9,12.01,47.84626,-54.09684
2022-07-04 10:39:01+00:00,238.2164,15.9,12.01,47.84626,-54.09684
2022-07-04 10:49:01+00:00,241.8547,15.9,12.01,47.84626,-54.09684
2022-07-04 10:59:01+00:00,244.5281,15.79,12.01,47.84626,-54.09684
2022-07-04 11:09:01+00:00,246.1331,15.58,12.01,47.84626,-54.09684
2022-07-04 11:19:01+00:00,248.6931,15.41,12.01,47.84626,-54.09684
2022-07-04 11:29:01+00:00,254.3514,15.4,12.01,47.84626,-54.09684
2022-07-04 11:39:01+00:00,256.1147,15.5,12.01,47.84626,-54.09684
2022-07-04 11:49:01+00:00,259.2081,15.5,12.01,47.84626,-54.09684
2022-07-04 11:59:01+00:00,260.9781,15.49,12.01,47.84626,-54.09684
2022-07-04 12:09:01+00:00,264.2548,15.5,12.01,47.84626,-54.09684
2022-07-04 12:19:00+00:00,267.0547,15.5,12.01,47.84626,-54.09684
2022-07-04 12:29:00+00:00,271.2464,15.5,12.01,47.84626,-54.09684
2022-07-04 12:39:00+00:00,275.238,15.5,12.01,47.84626,-54.09684
2022-07-04 12:49:00+00:00,284.6397,15.5,12.01,47.84626,-54.09684
2022-07-04 12:59:00+00:00,292.5098,15.52,12.01,47.84626,-54.09684
2022-07-04 13:09:00+00:00,298.7363,15.5,12.01,47.84626,-54.09684
2022-07-04 13:19:00+00:00,306.3813,15.49,12.09,47.84626,-54.09684
2022-07-04 13:29:00+00:00,313.128,15.48,12.09,47.84626,-54.09684
2022-07-04 13:39:00+00:00,315.6213,15.41,12.09,47.84626,-54.09684
2022-07-04 13:49:00+00:00,318.048,15.4,12.09,47.84626,-54.09684
2022-07-04 13:59:00+00:00,324.1096,15.41,12.09,47.84626,-54.09684
2022-07-04 14:09:00+00:00,326.028,15.4,12.09,47.84626,-54.09684
2022-07-04 14:19:00+00:00,323.8297,15.3,12.09,47.84626,-54.09684
2022-07-04 14:29:00+00:00,324.6463,15.3,12.09,47.84626,-54.09684
2022-07-04 14:39:00+00:00,328.2813,15.3,12.09,47.84626,-54.09684
2022-07-04 14:49:00+00:00,327.9996,15.39,12.09,47.84626,-54.09684
2022-07-04 14:59:00+00:00,320.7297,15.36,12.09,47.84626,-54.09684
2022-07-04 15:09:00+00:00,319.1813,15.3,12.09,47.84626,-54.09684
2022-07-04 15:19:00+00:00,322.0764,15.36,12.09,47.84626,-54.09684
2022-07-04 15:29:00+00:00,318.8513,15.46,12.09,47.84626,-54.09684
2022-07-04 15:39:00+00:00,315.9896,15.5,12.09,47.84626,-54.09684
2022-07-04 15:49:00+00:00,318.1097,15.5,12.09,47.84626,-54.09684
2022-07-04 15:59:00+00:00,320.8613,15.5,12.09,47.84626,-54.09684
2022-07-04 16:09:00+00:00,320.5663,15.57,12.09,47.84626,-54.09684
2022-07-04 16:19:00+00:00,319.403,15.58,12.17,47.84626,-54.09684
2022-07-04 16:29:00+00:00,322.533,15.58,12.17,47.84626,-54.09684
2022-07-04 16:39:00+00:00,321.2697,15.57,12.17,47.84626,-54.09684
2022-07-04 16:49:00+00:00,315.4696,15.56,12.17,47.84626,-54.09684
2022-07-04 16:59:00+00:00,309.6697,15.55,12.17,47.84626,-54.09684
2022-07-04 17:09:00+00:00,305.0446,15.4,12.17,47.84626,-54.09684
2022-07-04 17:19:00+00:00,302.1697,15.46,12.17,47.84626,-54.09684
2022-07-04 17:29:00+00:00,296.2614,15.59,12.17,47.84626,-54.09684
2022-07-04 17:39:00+00:00,286.668,15.6,12.17,47.84626,-54.09684
2022-07-04 17:49:00+00:00,281.6414,15.59,12.17,47.84626,-54.09684
2022-07-04 17:59:00+00:00,279.6597,15.59,12.17,47.84626,-54.09684
2022-07-04 18:09:00+00:00,275.3531,15.58,12.17,47.84626,-54.09684
2022-07-04 18:19:00+00:00,267.7714,15.6,12.17,47.84626,-54.09684
2022-07-04 18:29:00+00:00,261.9014,15.69,12.17,47.84626,-54.09684
2022-07-04 18:39:00+00:00,258.9664,15.6,12.17,47.84626,-54.09684
2022-07-04 18:49:00+00:00,253.4064,15.6,12.17,47.84626,-54.09684
2022-07-04 18:59:00+00:00,245.8914,15.5,12.17,47.84626,-54.09684
2022-07-04 19:09:00+00:00,240.9614,15.53,12.17,47.84626,-54.09684
2022-07-04 19:19:00+00:00,239.6764,15.6,12.17,47.84626,-54.09684
2022-07-04 19:29:00+00:00,234.3148,15.7,12.17,47.84626,-54.09684
2022-07-04 19:39:00+00:00,229.9081,15.7,12.17,47.84626,-54.09684
2022-07-04 19:49:00+00:00,226.7598,15.77,12.17,47.84626,-54.09684
2022-07-04 19:59:00+00:00,224.0597,15.87,12.17,47.84626,-54.09684
2022-07-04 20:09:00+00:00,219.4448,15.96,12.17,47.84626,-54.09684
2022-07-04 20:19:01+00:00,217.9565,15.94,12.09,47.84626,-54.09684
2022-07-04 20:29:01+00:00,214.8781,15.94,12.09,47.84626,-54.09684
2022-07-04 20:39:01+00:00,208.2214,16.0,12.09,47.84626,-54.09684
2022-07-04 20:49:01+00:00,205.5298,16.1,12.09,47.84626,-54.09684
2022-07-04 20:59:01+00:00,210.6231,16.05,12.09,47.84626,-54.09684
2022-07-04 21:09:01+00:00,211.3715,16.0,12.09,47.84626,-54.09684
2022-07-04 21:19:00+00:00,203.9431,16.01,12.09,47.84626,-54.09684
2022-07-04 21:29:00+00:00,204.8731,16.1,12.09,47.84626,-54.09684
2022-07-04 21:39:00+00:00,212.5498,16.1,12.09,47.84626,-54.09684
2022-07-04 21:49:00+00:00,214.1581,16.1,12.09,47.84626,-54.09684
2022-07-04 21:59:00+00:00,215.2581,16.17,12.09,47.84626,-54.09684
2022-07-04 22:09:00+00:00,220.3881,16.28,12.09,47.84626,-54.09684
2022-07-04 22:19:00+00:00,228.6731,16.4,12.09,47.84626,-54.09684
2022-07-04 22:29:00+00:00,232.9381,16.5,12.09,47.84626,-54.09684
2022-07-04 22:39:00+00:00,236.8831,16.77,12.09,47.84626,-54.09684
2022-07-04 22:49:00+00:00,243.8114,16.74,12.09,47.84626,-54.09684
2022-07-04 22:59:00+00:00,251.0281,16.6,12.09,47.84626,-54.09684
2022-07-04 23:09:00+00:00,254.0831,16.4,12.09,47.84626,-54.09684
2022-07-04 23:19:01+00:00,253.8814,16.45,12.09,47.84626,-54.09684
2022-07-04 23:29:01+00:00,255.9164,16.4,12.09,47.84626,-54.09684
2022-07-04 23:39:01+00:00,259.8247,16.3,12.09,47.84626,-54.09684
2022-07-04 23:49:01+00:00,262.0614,16.2,12.09,47.84626,-54.09684
2022-07-04 23:59:01+00:00,263.1614,16.2,12.09,47.84626,-54.09684
